Regional Weather Roundup
Issued by NWS Little Rock, AR

Home | Current Version | Previous Version | Text Only | Print | Product List | Glossary Off
Versions: 1 2 3 4 5 6 7 8 9 10 11 12 13 14 15 16 17 18 19 20 21 22 23 24 25 26 27 28 29 30 31 32 33 34 35 36 37 38 39 40 41 42 43 44 45 46 47 48 49 50

000
ASUS44 KLZK 060305
RWRLZK

WEATHER ROUNDUP FOR ARKANSAS
NATIONAL WEATHER SERVICE LITTLE ROCK AR
1000 PM CDT TUE MAY 05 2015

NOTE: "FAIR" INDICATES FEW OR NO CLOUDS BELOW 12,000 FEET WITH NO
SIGNIFICANT WEATHER AND/OR OBSTRUCTIONS TO VISIBILITY.

ARZ001-003-010-029-060400-
NORTHWEST ARKANSAS

CITY           SKY/WX    TMP DP  RH WIND       PRES   REMARKS
FAYETTEVILLE   MOCLDY    71  56  58 SE9       30.06R
FORT SMITH     CLOUDY    75  54  47 E6        30.03R
HARRISON       PTCLDY    68  54  60 SE8       30.11R
BENTONVILLE    MOCLDY    70  54  56 SE8       30.07R
ROGERS         MOCLDY    70  55  59 E10       30.07R
SILOAM SPGS    CLOUDY    68  52  56 SE7       30.06R
HIGHFILL       CLOUDY    71  53  52 SE10      30.05R
$$

ARZ004-005-016-060400-
NORTH CENTRAL ARKANSAS

CITY           SKY/WX    TMP DP  RH WIND       PRES   REMARKS
BATESVILLE     CLEAR     72  50  46 SE5       30.13R
FLIPPIN        MOCLDY    70  54  56 CALM      30.09R
MTN HOME       PTCLDY    70  53  54 SE5       30.11R
$$

ARZ040-041-060400-
WEST CENTRAL ARKANSAS

CITY           SKY/WX    TMP DP  RH WIND       PRES   REMARKS
MENA           CLOUDY    77  57  50 SE6       30.06S
MOUNT IDA      PTCLDY    73  54  51 SE6       30.06R
$$

ARZ009-017-025-026-028-060400-
NORTHEAST ARKANSAS

CITY           SKY/WX    TMP DP  RH WIND       PRES   REMARKS
CORNING          N/A     72  54  53 SE6       30.14R
JONESBORO      CLEAR     68  52  56 S3        30.13R
NEWPORT        CLEAR     71  53  52 SE15      30.14R
WALNUT RIDGE   CLEAR     66  50  55 S7        30.13R
BLYTHEVILLE    CLEAR     71  53  52 S6        30.14R
$$

ARZ022-023-033-042-044-060400-
CENTRAL ARKANSAS

CITY           SKY/WX    TMP DP  RH WIND       PRES   REMARKS
LITTLE ROCK    MOCLDY    73  55  53 E6        30.10R
N LITTLE ROCK  MOCLDY    74  59  59 SE7       30.10R
JACKSONVILLE   CLEAR     71  57  61 SE8       30.10R
SEARCY         CLEAR     69  56  62 SE3       30.13R
HOT SPRINGS    PTCLDY    70  57  63 E6        30.08R
RUSSELLVILLE   PTCLDY    68  57  68 CALM      30.07R
$$

ARZ036-060400-
EAST ARKANSAS

CITY           SKY/WX    TMP DP  RH WIND       PRES   REMARKS
WEST MEMPHIS   CLEAR     69  54  58 SE5       30.13R
$$

ARZ050-053-066-070-073-060400-
SOUTHWEST ARKANSAS

CITY           SKY/WX    TMP DP  RH WIND       PRES   REMARKS
ARKADELPHIA    FAIR      68  65  90 CALM      30.08R
CAMDEN         CLEAR     68  57  68 CALM      30.07R
TEXARKANA      CLOUDY    73  61  65 SE6       30.04R
EL DORADO      PTCLDY    71  58  63 E5        30.08R
DE QUEEN       CLOUDY    72  63  73 E3        30.02R
$$

ARZ056-057-069-060400-
SOUTHEAST ARKANSAS

CITY           SKY/WX    TMP DP  RH WIND       PRES   REMARKS
PINE BLUFF     CLEAR     69  58  67 SE7       30.10R
STUTTGART      CLEAR     72  54  53 E7        30.12R
MONTICELLO     CLEAR     71  57  61 E3        30.10R

$$





USA.gov is the U.S. government's official web portal to all federal, state and local government web resources and services.